User: anonymous   Login
Location: Unspecified
(0.0000°N, 0.0000°E)
Time: 00:26:05
(UTC+00:00)
Language:

Snapshot - Orbit

View from above orbital plane
View from above orbital plane
View from above satellite
View from above satellite

Ground track
Ground track

The orbit data is extracted from the following two-line orbital elements,

1 01314U 65027A   16127.48703644  .00000022  00000-0  55271-4 0  9990
2 01314  90.3031 273.4140 0029875 197.3426 229.0624 12.91746369154554
Epoch (UTC): 06 May 2016 11:41:19
Eccentricity: 0.0029875
inclination: 90.3031°
perigee height: 1271 km
apogee height: 1317 km
right ascension of ascending node: 273.4140°
argument of perigee: 197.3426°
revolutions per day: 12.91746369
mean anomaly at epoch: 229.0624°
orbit number at epoch: 15455

The dashed part of the orbit path shows where the satellite is in the earth's shadow,  

DLR